Location: Irma
(52.9170°N, 111.2330°W)
Time: 04:52:45
(UTC-06:00)

Cosmos 1633 Rocket - Visible Passes

Search period start: 25 July 2017 00:00
Search period end: 04 August 2017 00:00
Orbit: 609 x 623 km, 82.5° (Epoch: 25 July)

Date Brightness Start Highest point End Pass type
(mag) Time Alt. Az. Time Alt. Az. Time Alt. Az.
27 Jul 6.2 22:01:39 10° WSW 22:04:41 18° WNW 22:07:43 10° NNW visible
28 Jul 6.7 22:19:43 10° WNW 22:21:22 12° NW 22:23:01 10° NW visible
03 Aug 6.4 04:47:30 10° NNE 04:49:54 14° ENE 04:52:17 10° E visible
